Location: �couen
(49.0206°N, 2.3831°E)
Time: 04:00:05
(UTC+00:00)

SL-16 R/B - Pass Details

Date: 16 October 2021
Orbit: 842 x 846 km, 71.0° (Epoch: 27 November)

Event Time Altitude Azimuth Distance (km) Brightness Sun altitude
Rises 19:46:34 0° 204° (SSW) 3,388 5.4 -28.0°
Reaches altitude 10° 19:48:59 10° 203° (SSW) 2,457 4.6 -28.4°
Enters shadow 19:51:21 26° 202° (SSW) 1,592 3.6 -28.8°
